Flag for U.S.A. Weather past 2 weeks in Warminster Township, Pennsylvania, U.S.A.

Now
23 °F

Passing clouds.


Feels Like: 13 °F
Forecast: 24 / 44 °F
Wind: 9 mph from Northwest

Location: Doylestown Airport

Current Time: Mar 28, 2015 at 11:53:04 PM

Latest Report: Mar 28, 2015 at 10:54 PM


Visibility: 10 mi

Pressure: 30.16 "Hg

Humidity: 50%

Dew point: 7 °F

Location of Warminster TownshipLocation

Historic Weather in Warminster Township — Graph

°F

Warminster Township temperature yesterday

Maximum temperature yesterday: 43 °F (at 12:54 AM)
Minimum temperature yesterday: 33 °F (at 5:54 AM)
Average temperature yesterday: 39 °F

Past Weeks' High & Low Weather Summary

 TemperatureHumidityPressure
High65 °F (Mar 26, 5:54 PM)100% (Mar 14, 2:54 AM)30.42 "Hg (Mar 14, 2:54 AM)
Low20 °F (Mar 19, 4:54 AM)21% (Mar 19, 4:54 PM)29.57 "Hg (Mar 26, 6:54 PM)
Average36 °F65%30.04 "Hg
* Reported Mar 13 9:54 PM — Mar 28 9:54 PM, Warminster Township, Weather by CustomWeather, © 2015

Note: Actual official high and low records may vary slightly from our data, if they occured in-between our weather recording intervals... More about our weather records

Advertising

Warminster Township weather history for previous 24 hours

 ConditionsComfort  
Time TempWeatherWind HumidityBarometerVisibility
9:54 PM
Sat, Mar 28
25 °FPassing clouds.12 mph46%30.14 "Hg10 mi
8:54 PM26 °FOvercast.10 mph50%30.11 "Hg10 mi
7:54 PM28 °FOvercast.16 mph49%30.07 "Hg10 mi
6:54 PM28 °FSunny.13 mph49%30.03 "Hg10 mi
5:54 PM31 °FScattered clouds.14 mph45%29.98 "Hg10 mi
4:54 PM36 °FPartly sunny.18 mph40%29.92 "Hg10 mi
3:54 PM35 °FMostly cloudy.8 mph40%29.90 "Hg10 mi
2:54 PM37 °FPartly sunny.15 mph41%29.88 "Hg10 mi
1:54 PM36 °FOvercast.14 mph44%29.88 "Hg10 mi
12:54 PM36 °FOvercast.14 mph44%29.88 "Hg10 mi
11:54 AM35 °FOvercast.17 mph48%29.88 "Hg10 mi
10:54 AM34 °FOvercast.15 mph50%29.88 "Hg10 mi
9:54 AM34 °FScattered clouds.10 mph52%29.87 "Hg10 mi
8:54 AM31 °FOvercast.12 mph61%29.85 "Hg10 mi
7:54 AM30 °FOvercast.12 mph61%29.84 "Hg10 mi
6:54 AM30 °FOvercast.10 mph61%29.82 "Hg10 mi
5:54 AM30 °FOvercast.9 mph69%29.81 "Hg10 mi
4:54 AM31 °FPassing clouds.8 mph73%29.80 "Hg10 mi
3:54 AM32 °FOvercast.10 mph69%29.79 "Hg10 mi
2:54 AM33 °FClear.8 mph72%29.80 "Hg10 mi
1:54 AM34 °FPassing clouds.7 mph70%29.81 "Hg10 mi
12:54 AM34 °FClear.6 mph70%29.81 "Hg10 mi
11:54 PM
Fri, Mar 27
36 °FClear.6 mph62%29.80 "Hg10 mi
Weather by CustomWeather, © 2015

See weather overviewHow to use our weather pages